Regional Weather Roundup
Issued by NWS

Home | Current Version | Previous Version | Text Only | Print | Product List | Glossary Off
Versions: 1 2 3 4 5 6 7 8 9 10 11 12 13 14 15 16 17 18 19 20 21 22 23 24 25 26 27 28 29 30 31 32 33 34 35 36 37 38 39 40 41 42 43 44 45 46 47 48 49 50

000
ASUS43 KMKX 220121
RWRWI

WISCONSIN REGIONAL WEATHER ROUNDUP
NATIONAL WEATHER SERVICE MILWAUKEE/SULLIVAN WI
700 PM CST FRI NOV 21 2014

NOTE: "FAIR" INDICATES FEW OR NO CLOUDS BELOW 12,000 FEET WITH NO
SIGNIFICANT WEATHER AND/OR OBSTRUCTIONS TO VISIBILITY.

WIZ001-002-006>008-014>016-023>028-220200-
NORTHWEST WISCONSIN

CITY           SKY/WX    TMP DP  RH WIND       PRES   REMARKS
SUPERIOR ARPT  MOCLDY    28  18  66 SW17G23   29.86F WCI  16
ASHLAND        MOCLDY    26  12  55 S18G29    29.89F WCI  13
HAYWARD        PTCLDY    24  12  60 S16G23    29.93F WCI  11
SIREN          PTCLDY    27  18  68 S12       29.93F WCI  17
CUMBERLAND     FAIR      23  14  68 S9        29.95F WCI  13
RICE LAKE      FAIR      22  12  65 SE10      29.98F WCI  11
CHETEK         FAIR      22  11  63 SE7       29.98F WCI  13
LADYSMITH      PTCLDY    23  10  55 S9        30.00F WCI  13
EAU CLAIRE     PTCLDY    25  12  58 S9        30.01F WCI  15
MENOMONIE      PTCLDY    28  16  63 S9        30.01F WCI  19
NEW RICHMOND   MOCLDY    27  19  71 S13       29.96F WCI  16
OSCEOLA        MOCLDY    28  20  71 S10G18    29.98F WCI  19
$$

WIZ003>005-009-010-017-018-220200-
NORTH CENTRAL WISCONSIN

CITY           SKY/WX    TMP DP  RH WIND       PRES   REMARKS
MANITOWISH WTR CLOUDY    22   8  53 S12G20    29.93F WCI  11
ARBOR VITAE    CLOUDY    22   9  56 S13G20    29.95F WCI  10
WOODRUFF       CLOUDY    22   9  56 S13G20    29.95F WCI  10
RHINELANDER    MOCLDY    22   5  48 SW17G24   29.99F WCI   8
EAGLE RIVER    MOCLDY    22   5  47 SW10G16   29.96F WCI  11
LAND O LAKES   MOCLDY    22   7  52 S10G17    29.94F WCI  12
PHILLIPS       PTCLDY    22   7  53 S14       29.96F WCI   9
TOMAHAWK       MOCLDY    21   8  55 CALM      30.01F
MEDFORD        PTCLDY    21   9  59 S13       30.01F WCI   9
MERRILL        PTCLDY    24   7  49 S8        30.04F WCI  15
$$

WIZ029-030-035-036-043>047-220200-
CENTRAL WISCONSIN

CITY           SKY/WX    TMP DP  RH WIND       PRES   REMARKS
WAUSAU         PTCLDY    24   7  48 S12G22    30.04F WCI  13
MOSINEE        CLEAR     25  10  54 S15       30.07F WCI  12
MARSHFIELD     PTCLDY    26   9  48 S16       30.05F WCI  14
STEVENS POINT  CLEAR     23   8  50 S10       30.10F WCI  13
WAUPACA        PTCLDY    28  10  46 S9        30.14F WCI  19
WAUTOMA        CLEAR     27   9  46 S8        30.15F WCI  19
WISC RAPIDS    CLEAR     27   7  42 S12       30.11F WCI  17
CAMP DOUGLAS   CLOUDY    28  10  48 S9        30.11F WCI  19
$$

WIZ011>013-019>022-031-037>040-048>050-220200-
NORTHEAST WISCONSIN

CITY           SKY/WX    TMP DP  RH WIND       PRES   REMARKS
ANTIGO         PTCLDY    20   8  58 S16       30.04F WCI   6
SHAWANO        PTCLDY    28  11  48 SW7       30.13F WCI  21
OCONTO         MOCLDY    28  10  45 S9G18     30.14F WCI  19
STURGEON BAY   CLOUDY    28   9  43 S15       30.13F WCI  17
GREEN BAY      PTCLDY    29  11  47 S14       30.15F WCI  18
MANITOWOC      CLOUDY    30   8  39 S15G22    30.19F WCI  19
APPLETON       MOCLDY    27   9  46 S15       30.15F WCI  15
CLINTONVILLE   PTCLDY    27  10  50 S12       30.13F WCI  16
OSHKOSH        PTCLDY    25  10  53 S14       30.16F WCI  13
$$

WIZ032>034-041-042-053>061-220200-
SOUTHWEST WISCONSIN

CITY           SKY/WX    TMP DP  RH WIND       PRES   REMARKS
LA CROSSE      CLOUDY    31  15  52 S14G22    30.10F WCI  21
SPARTA         CLOUDY    28  11  48 S8        30.11F WCI  20
VIROQUA        CLOUDY    28  13  54 S10G18    30.09F WCI  18
BOSCOBEL       CLOUDY    32  11  41 S6        30.16F WCI  26
PRAIRIE DU CHI CLOUDY    32  11  41 CALM      30.15F
PLATTEVILLE    CLOUDY    30  13  49 CALM      30.17F
$$

WIZ056-057-062-063-064-067-068-220200-
SOUTH CENTRAL WISCONSIN

CITY           SKY/WX    TMP DP  RH WIND       PRES   REMARKS
REEDSBURG      MOCLDY    28   9  45 S9        30.14F WCI  19
BARABOO/DELLS  MOCLDY    28   7  40 S15       30.13F WCI  17
LONE ROCK      CLOUDY    33  10  38 SE3       30.17F
MINERAL POINT  CLOUDY    30  10  43 S14       30.14F WCI  20
MADISON        MOCLDY    29   8  41 S12       30.18F WCI  19
MIDDLETON      FAIR      30   7  37 S8        30.18F WCI  22
WATERTOWN      CLEAR     26   8  47 S8        30.19F WCI  18
MONROE         MOCLDY    28  10  47 S12G17    30.19F WCI  18
JANESVILLE     CLEAR     28   7  40 S7        30.22F WCI  21
$$

WIZ051-052-058>065-066-070>072-220200-
SOUTHEAST WISCONSIN

CITY           SKY/WX    TMP DP  RH WIND       PRES   REMARKS
MILWAUKEE      PTCLDY    28   2  32 S7        30.24F WCI  21
WAUKESHA       CLEAR     25   3  39 S8        30.23F WCI  16
MILWAUKEE/TIMM CLEAR     28   1  31 S8        30.24F WCI  20
RACINE         CLEAR     29   4  34 S10       30.27F WCI  20
BURLINGTON     CLEAR     24   5  44 S8        30.23F WCI  15
KENOSHA        CLEAR     27   5  39 S9        30.25F WCI  18
FOND DU LAC    PTCLDY    26   9  48 S15       30.17F WCI  14
SHEBOYGAN      PTCLDY    28   6  39 S16       30.21F WCI  16
WEST BEND      CLEAR     27   3  36 S7        30.20F WCI  19
JUNEAU         CLEAR     25   9  49 S14       30.20F WCI  13
$$

LSZ147-162-220200-
LAKE SUPERIOR

STATION/POSITION TIME  TEMP    WIND        PRES    WAVE
                       AIR SEA DIR/SP/G            HT/PER
                 (UTC) (F)     (DEG/KT/KT) (MB)    (FT/S)
DEVILS ISLAND    0100   32     220/ 21/ 30 1011.4F
PORT WING        0102   28     190/ 17/ 25 1011.2F
SAXON HARBOR     0000   30     190/ 11/ 21 1011.9F
$$

LMZ867-665-643>646-220200-
LAKE MICHIGAN

STATION/POSITION TIME  TEMP    WIND        PRES    WAVE
                       AIR SEA DIR/SP/G            HT/PER
                 (UTC) (F)     (DEG/KT/KT) (MB)    (FT/S)
CHAMBERS ISLAND  0000   29     180/  9/ 18 1020.7F
N MID LAKE BUOY  0050   36 42  210/ 31/ 37 1020.3F  10/ 8
NORTHPORT PIER   0012   29     180/  5/ 17 1020.7F
SISTER BAY       0043          200/ 18/ 22   N/A
ALGOMA LAKESHORE 0043          230/ 23/ 28   N/A
KEWAUNEE LAKESHO 0000   30     200/ 15/ 19 1021.5F
SHEBOYGAN LAKESH 0100   31 35  200/ 22/ 24 1024.1F
PORT WASHINGTON  0040   30     210/  9/ 13 1024.4F
ATWATER BUOY     0100   30      CALM  /  2 1025.4F
MILWAUKEE LAKESH 0000   30     190/ 11/ 13   N/A
S MID LAKE BUOY  0050   35 43  180/ 21/ 27 1026.3F   5/ 5
KENOSHA   LAKESH 0100   31     190/ 12/ 18 1024.0F
$$

TC  - TEMPERATURE IN CELSIUS
VSB - VISIBILITY IN STATUTE MILES
WCI - WIND CHILL INDEX
HX  - HEAT INDEX



USA.gov is the U.S. government's official web portal to all federal, state and local government web resources and services.